Location: Mesa
(33.4220°N, 111.8220°W)
Time: 02:27:31
(UTC-07:00)

N. Korean satellite - Pass Details

Date: 18 November 2019
Orbit: 456 x 506 km, 97.2° (Epoch: 06 December)

Event Time Altitude Azimuth Distance (km) Brightness Sun altitude
Rises 17:57:58 0° 182° (S) 2,533 10.5 -7.6°
Reaches altitude 10° 18:00:05 10° 189° (S) 1,667 9.7 -8.0°
Maximum altitude 18:03:30 42° 261° (W) 712 8.1 -8.7°
Drops below altitude 10° 18:07:00 10° 334° (NNW) 1,703 9.4 -9.4°
Sets 18:09:11 0° 341° (NNW) 2,597 10.3 -9.8°
